Location: ????????
(55.5667°N, 37.5833°E)
Time: 21:35:16
(UTC+00:00)

Cosmos 371 Rocket - Pass Details

Date: 14 April 2026
Orbit: 674 x 689 km, 74.0° (Epoch: 16 May)

Event Time Altitude Azimuth Distance (km) Brightness Sun altitude
Rises 19:48:37 0° 333° (NNW) 3,066 8.2 -21.5°
Reaches altitude 10° 19:51:03 10° 340° (NNW) 2,148 7.0 -21.6°
Maximum altitude 19:55:40 43° 52° (NE) 977 4.1 -21.9°
Enters shadow 19:57:01 34° 92° (E) 1,129 4.1 -22.0°
